Location: Grand Rapids
(42.9630°N, 85.6680°W)
Time: 14:35:30
(UTC-04:00)

Tiangong - Visible Passes

Search period start: 01 October 2023 00:00
Search period end: 11 October 2023 00:00
Orbit: 372 x 384 km, 41.5° (Epoch: 01 October)

Date Brightness Start Highest point End Pass type
(mag) Time Alt. Az. Time Alt. Az. Time Alt. Az.
01 Oct -1.8 20:42:04 10° WSW 20:45:07 47° SSE 20:45:45 39° SE visible
02 Oct -1.0 21:16:42 10° W 21:18:52 39° WSW 21:18:52 39° WSW visible
03 Oct -2.0 20:14:47 10° WSW 20:17:53 58° S 20:19:48 20° E visible
03 Oct 1.0 21:51:22 10° W 21:51:51 14° W 21:51:51 14° W visible
04 Oct -2.2 20:49:18 10° W 20:52:25 67° S 20:52:40 62° SSE visible
05 Oct -2.0 19:47:11 10° W 19:50:19 66° S 19:53:24 10° E visible
05 Oct -0.1 21:23:49 10° W 21:25:27 26° WSW 21:25:27 26° WSW visible
06 Oct -1.9 20:21:35 10° W 20:24:40 60° S 20:26:07 27° ESE visible
07 Oct -1.1 20:55:57 10° W 20:58:45 36° SSW 20:58:45 36° SSW visible
08 Oct -1.6 19:53:29 10° W 19:56:32 50° SSW 19:59:20 12° ESE visible
08 Oct 0.9 21:30:41 10° WSW 21:31:22 13° WSW 21:31:22 13° WSW visible
09 Oct -0.4 20:27:47 10° W 20:30:29 26° SSW 20:31:56 18° SSE visible
10 Oct 0.7 21:03:10 10° SW 21:04:07 11° SSW 21:04:32 11° SSW visible
